Tracking 29747 objects as of 10-Oct-2024
HD Live streaming from Space Station
objects crossing your sky now

STARLINK-4723

Track STARLINK-4723 now!
10-day predictions
STARLINK-4723 is classified as:


NORAD ID: 53797
Int'l Code: 2022-111AA
Perigee: 546.1 km
Apogee: 547.7 km
Inclination: 53.2 °
Period: 95.4 minutes
Semi major axis: 6917 km
RCS: Unknown
Launch date: September 11, 2022
Source: United States (US)
Launch site: AIR FORCE EASTERN TEST RANGE (AFETR)
Your satellite tracking list
Your tracking list is empty




NASA's NSSDC Master Catalog

Two Line Element Set (TLE):
1 53797U 22111AA  24283.55590166 -.00000917  00000-0 -39569-4 0  9999
2 53797  53.2152  70.6969 0001200  74.2376 285.8748 15.08831528114975
Source of the keplerian elements: AFSPC